Year,Month,Day,Hour,Minute,Value (Times are PST for windspeed in km/hr)
2020,11,17,00,00,5.60
2020,11,17,00,01,4.50
2020,11,17,00,02,3.20
2020,11,17,00,03,1.90
2020,11,17,00,04,0.40
2020,11,17,00,05,2.40
2020,11,17,00,06,6.60
2020,11,17,00,07,4.50
2020,11,17,00,08,2.70
2020,11,17,00,09,1.60
2020,11,17,00,10,2.20
2020,11,17,00,11,4.70
2020,11,17,00,12,1.40
2020,11,17,00,13,2.50
2020,11,17,00,14,4.10
2020,11,17,00,15,2.10
2020,11,17,00,16,2.10
2020,11,17,00,17,1.30
2020,11,17,00,18,2.60
2020,11,17,00,19,3.80
2020,11,17,00,20,3.70
2020,11,17,00,21,4.10
2020,11,17,00,22,4.70
2020,11,17,00,23,1.90
2020,11,17,00,24,0.20
2020,11,17,00,25,0.10
2020,11,17,00,26,1.70
2020,11,17,00,27,3.20
2020,11,17,00,28,4.90
2020,11,17,00,29,4.90
2020,11,17,00,30,2.70
2020,11,17,00,31,0.60
2020,11,17,00,32,1.80
2020,11,17,00,33,1.20
2020,11,17,00,34,0.00
2020,11,17,00,35,0.00
2020,11,17,00,36,0.00
2020,11,17,00,37,0.00
2020,11,17,00,38,0.10
2020,11,17,00,39,0.40
2020,11,17,00,40,0.00
2020,11,17,00,41,0.00
2020,11,17,00,42,0.90
2020,11,17,00,43,2.20
2020,11,17,00,44,2.10
2020,11,17,00,45,2.60
2020,11,17,00,46,4.20
2020,11,17,00,47,2.40
2020,11,17,00,48,2.40
2020,11,17,00,49,5.00
2020,11,17,00,50,4.70
2020,11,17,00,51,1.60
2020,11,17,00,52,4.50
2020,11,17,00,53,3.80
2020,11,17,00,54,2.40
2020,11,17,00,55,1.80
2020,11,17,00,56,1.10
2020,11,17,00,57,3.30
2020,11,17,00,58,1.80
2020,11,17,00,59,2.20
2020,11,17,01,00,3.20
2020,11,17,01,01,0.00
2020,11,17,01,02,0.00
2020,11,17,01,03,0.00
2020,11,17,01,04,0.00
2020,11,17,01,05,0.00
2020,11,17,01,06,0.00
2020,11,17,01,07,0.00
2020,11,17,01,08,0.00
2020,11,17,01,09,0.00
2020,11,17,01,10,0.00
2020,11,17,01,11,0.00
2020,11,17,01,12,0.00
2020,11,17,01,13,0.00
2020,11,17,01,14,0.00
2020,11,17,01,15,0.00
2020,11,17,01,16,0.00
2020,11,17,01,17,0.00
2020,11,17,01,18,0.00
2020,11,17,01,19,0.00
2020,11,17,01,20,0.00
2020,11,17,01,21,0.00
2020,11,17,01,22,0.00
2020,11,17,01,23,0.00
2020,11,17,01,24,0.00
2020,11,17,01,25,0.00
2020,11,17,01,26,0.00
2020,11,17,01,27,0.00
2020,11,17,01,28,0.00
2020,11,17,01,29,0.00
2020,11,17,01,30,0.00
2020,11,17,01,31,0.00
2020,11,17,01,32,0.00
2020,11,17,01,33,0.00
2020,11,17,01,34,0.00
2020,11,17,01,35,0.00
2020,11,17,01,36,0.00
2020,11,17,01,37,0.00
2020,11,17,01,38,0.00
2020,11,17,01,39,0.00
2020,11,17,01,40,0.00
2020,11,17,01,41,0.00
2020,11,17,01,42,0.00
2020,11,17,01,43,1.70
2020,11,17,01,44,2.90
2020,11,17,01,45,0.60
2020,11,17,01,46,0.00
2020,11,17,01,47,0.00
2020,11,17,01,48,0.00
2020,11,17,01,49,2.20
2020,11,17,01,50,8.10
2020,11,17,01,51,3.50
2020,11,17,01,52,5.50
2020,11,17,01,53,5.70
2020,11,17,01,54,4.70
2020,11,17,01,55,4.20
2020,11,17,01,56,7.20
2020,11,17,01,57,4.00
2020,11,17,01,58,3.20
2020,11,17,01,59,7.10
2020,11,17,02,00,7.00
2020,11,17,02,01,6.60
2020,11,17,02,02,5.00
2020,11,17,02,03,5.70
2020,11,17,02,04,5.90
2020,11,17,02,05,6.60
2020,11,17,02,06,4.70
2020,11,17,02,07,9.30
2020,11,17,02,08,6.60
2020,11,17,02,09,5.20
2020,11,17,02,10,6.00
2020,11,17,02,11,7.40
2020,11,17,02,12,5.30
2020,11,17,02,13,6.70
2020,11,17,02,14,4.30
2020,11,17,02,15,3.90
2020,11,17,02,16,2.80
2020,11,17,02,17,9.10
2020,11,17,02,18,4.20
2020,11,17,02,19,5.40
2020,11,17,02,20,9.10
2020,11,17,02,21,6.60
2020,11,17,02,22,8.70
2020,11,17,02,23,5.80
2020,11,17,02,24,8.40
2020,11,17,02,25,6.40
2020,11,17,02,26,8.30
2020,11,17,02,27,5.80
2020,11,17,02,28,6.00
2020,11,17,02,29,5.00
2020,11,17,02,30,6.50
2020,11,17,02,31,5.70
2020,11,17,02,32,5.80
2020,11,17,02,33,4.50
2020,11,17,02,34,5.30
2020,11,17,02,35,6.40
2020,11,17,02,36,5.20
2020,11,17,02,37,4.80
2020,11,17,02,38,11.50
2020,11,17,02,39,7.10
2020,11,17,02,40,7.20
2020,11,17,02,41,9.90
2020,11,17,02,42,11.60
2020,11,17,02,43,8.00
2020,11,17,02,44,7.30
2020,11,17,02,45,5.60
2020,11,17,02,46,8.70
2020,11,17,02,47,9.90
2020,11,17,02,48,17.40
2020,11,17,02,49,13.60
2020,11,17,02,50,12.60
2020,11,17,02,51,11.30
2020,11,17,02,52,12.00
2020,11,17,02,53,9.00
2020,11,17,02,54,9.00
2020,11,17,02,55,9.30
2020,11,17,02,56,13.20
2020,11,17,02,57,18.20
2020,11,17,02,58,10.40
2020,11,17,02,59,12.70
2020,11,17,03,00,7.50
2020,11,17,03,01,12.70
2020,11,17,03,02,9.90
2020,11,17,03,03,10.10
2020,11,17,03,04,12.50
2020,11,17,03,05,14.50
2020,11,17,03,06,11.60
2020,11,17,03,07,17.50
2020,11,17,03,08,17.80
2020,11,17,03,09,14.80
2020,11,17,03,10,14.40
2020,11,17,03,11,12.30
2020,11,17,03,12,11.40
2020,11,17,03,13,11.20
2020,11,17,03,14,17.50
2020,11,17,03,15,12.00
2020,11,17,03,16,16.90
2020,11,17,03,17,13.70
2020,11,17,03,18,11.40
2020,11,17,03,19,11.80
2020,11,17,03,20,19.50
2020,11,17,03,21,14.50
2020,11,17,03,22,9.80
2020,11,17,03,23,15.10
2020,11,17,03,24,13.80
2020,11,17,03,25,18.00
2020,11,17,03,26,21.20
2020,11,17,03,27,9.90
2020,11,17,03,28,17.40
2020,11,17,03,29,15.20
2020,11,17,03,30,8.10
2020,11,17,03,31,14.30
2020,11,17,03,32,12.90
2020,11,17,03,33,12.80
2020,11,17,03,34,10.20
2020,11,17,03,35,12.00
2020,11,17,03,36,17.10
2020,11,17,03,37,12.00
2020,11,17,03,38,11.30
2020,11,17,03,39,8.50
2020,11,17,03,40,7.90
2020,11,17,03,41,16.30
2020,11,17,03,42,11.20
2020,11,17,03,43,9.70
2020,11,17,03,44,5.80
2020,11,17,03,45,8.00
2020,11,17,03,46,6.80
2020,11,17,03,47,15.40
2020,11,17,03,48,14.50
2020,11,17,03,49,12.80
2020,11,17,03,50,11.50
2020,11,17,03,51,12.60
2020,11,17,03,52,14.90
2020,11,17,03,53,10.90
2020,11,17,03,54,13.30
2020,11,17,03,55,13.30
2020,11,17,03,56,11.80
2020,11,17,03,57,11.30
2020,11,17,03,58,9.90
2020,11,17,03,59,6.30
2020,11,17,04,00,18.10
2020,11,17,04,01,14.60
2020,11,17,04,02,16.30
2020,11,17,04,03,20.00
2020,11,17,04,04,18.00
2020,11,17,04,05,14.50
2020,11,17,04,06,10.50
2020,11,17,04,07,18.60
2020,11,17,04,08,10.20
2020,11,17,04,09,7.10
2020,11,17,04,10,16.00
2020,11,17,04,11,9.10
2020,11,17,04,12,10.00
2020,11,17,04,13,11.30
2020,11,17,04,14,11.20
2020,11,17,04,15,13.20
2020,11,17,04,16,5.80
2020,11,17,04,17,11.70
2020,11,17,04,18,11.40
2020,11,17,04,19,15.90
2020,11,17,04,20,15.70
2020,11,17,04,21,11.00
2020,11,17,04,22,13.50
2020,11,17,04,23,11.80
2020,11,17,04,24,8.60
2020,11,17,04,25,7.50
2020,11,17,04,26,9.90
2020,11,17,04,27,17.10
2020,11,17,04,28,10.40
2020,11,17,04,29,11.30
2020,11,17,04,30,14.10
2020,11,17,04,31,12.40
2020,11,17,04,32,16.00
2020,11,17,04,33,12.20
2020,11,17,04,34,17.60
2020,11,17,04,35,14.00
2020,11,17,04,36,18.10
2020,11,17,04,37,11.80
2020,11,17,04,38,17.70
2020,11,17,04,39,25.30
2020,11,17,04,40,15.90
2020,11,17,04,41,17.70
2020,11,17,04,42,16.80
2020,11,17,04,43,17.10
2020,11,17,04,44,14.10
2020,11,17,04,45,12.50
2020,11,17,04,46,14.10
2020,11,17,04,47,14.80
2020,11,17,04,48,13.30
2020,11,17,04,49,13.70
2020,11,17,04,50,9.80
2020,11,17,04,51,13.50
2020,11,17,04,52,12.10
2020,11,17,04,53,14.90
2020,11,17,04,54,12.40
2020,11,17,04,55,15.10
2020,11,17,04,56,13.50
2020,11,17,04,57,11.70
2020,11,17,04,58,9.80
2020,11,17,04,59,12.50
2020,11,17,05,00,12.40
2020,11,17,05,01,18.60
2020,11,17,05,02,11.40
2020,11,17,05,03,9.10
2020,11,17,05,04,9.30
2020,11,17,05,05,10.40
2020,11,17,05,06,6.70
2020,11,17,05,07,15.70
2020,11,17,05,08,11.00
2020,11,17,05,09,17.00
2020,11,17,05,10,16.60
2020,11,17,05,11,9.90
2020,11,17,05,12,16.90
2020,11,17,05,13,16.30
2020,11,17,05,14,11.30
2020,11,17,05,15,11.20
2020,11,17,05,16,16.30
2020,11,17,05,17,11.00
2020,11,17,05,18,9.10
2020,11,17,05,19,6.70
2020,11,17,05,20,7.60
2020,11,17,05,21,10.00
2020,11,17,05,22,15.20
2020,11,17,05,23,8.40
2020,11,17,05,24,7.50
2020,11,17,05,25,14.10
2020,11,17,05,26,11.80
2020,11,17,05,27,8.70
2020,11,17,05,28,14.40
2020,11,17,05,29,17.10
2020,11,17,05,30,14.20
2020,11,17,05,31,7.70
2020,11,17,05,32,9.50
2020,11,17,05,33,16.20
2020,11,17,05,34,12.20
2020,11,17,05,35,5.80
2020,11,17,05,36,12.50
2020,11,17,05,37,10.50
2020,11,17,05,38,8.40
2020,11,17,05,39,11.70
2020,11,17,05,40,8.40
2020,11,17,05,41,9.00
2020,11,17,05,42,9.40
2020,11,17,05,43,9.30
2020,11,17,05,44,12.30
2020,11,17,05,45,13.90
2020,11,17,05,46,17.20
2020,11,17,05,47,13.70
2020,11,17,05,48,9.80
2020,11,17,05,49,10.80
2020,11,17,05,50,17.70
2020,11,17,05,51,10.90
2020,11,17,05,52,4.70
2020,11,17,05,53,11.10
2020,11,17,05,54,13.80
2020,11,17,05,55,14.10
2020,11,17,05,56,13.70
2020,11,17,05,57,12.70
2020,11,17,05,58,13.50
2020,11,17,05,59,18.80
2020,11,17,06,00,15.10
2020,11,17,06,01,7.70
2020,11,17,06,02,21.60
2020,11,17,06,03,19.30
2020,11,17,06,04,13.00
2020,11,17,06,05,23.10
2020,11,17,06,06,18.90
2020,11,17,06,07,18.70
2020,11,17,06,08,17.70
2020,11,17,06,09,12.90
2020,11,17,06,10,12.10
2020,11,17,06,11,18.70
2020,11,17,06,12,12.00
2020,11,17,06,13,10.30
2020,11,17,06,14,15.70
2020,11,17,06,15,16.80
2020,11,17,06,16,14.70
2020,11,17,06,17,13.70
2020,11,17,06,18,15.10
2020,11,17,06,19,15.30
2020,11,17,06,20,16.40
2020,11,17,06,21,15.50
2020,11,17,06,22,17.80
2020,11,17,06,23,17.40
2020,11,17,06,24,19.70
2020,11,17,06,25,20.80
2020,11,17,06,26,18.70
2020,11,17,06,27,9.20
2020,11,17,06,28,21.60
2020,11,17,06,29,13.90
2020,11,17,06,30,16.30
2020,11,17,06,31,12.10
2020,11,17,06,32,14.60
2020,11,17,06,33,13.90
2020,11,17,06,34,18.00
2020,11,17,06,35,12.20
2020,11,17,06,36,20.60
2020,11,17,06,37,23.40
2020,11,17,06,38,18.40
2020,11,17,06,39,14.80
2020,11,17,06,40,22.20
2020,11,17,06,41,18.50
2020,11,17,06,42,20.70
2020,11,17,06,43,19.90
2020,11,17,06,44,12.70
2020,11,17,06,45,14.20
2020,11,17,06,46,28.60
2020,11,17,06,47,24.30
2020,11,17,06,48,15.20
2020,11,17,06,49,20.20
2020,11,17,06,50,16.40
2020,11,17,06,51,21.30
2020,11,17,06,52,14.90
2020,11,17,06,53,36.30
2020,11,17,06,54,17.60
2020,11,17,06,55,20.30
2020,11,17,06,56,13.70
2020,11,17,06,57,18.00
2020,11,17,06,58,11.80
2020,11,17,06,59,15.70
2020,11,17,07,00,19.90
2020,11,17,07,01,14.30
2020,11,17,07,02,13.80
2020,11,17,07,03,10.70
2020,11,17,07,04,12.30
2020,11,17,07,05,13.20
2020,11,17,07,06,17.40
2020,11,17,07,07,16.40
2020,11,17,07,08,16.10
2020,11,17,07,09,12.90
2020,11,17,07,10,10.80
2020,11,17,07,11,13.30
2020,11,17,07,12,6.60
2020,11,17,07,13,12.10
2020,11,17,07,14,18.00
2020,11,17,07,15,10.60
2020,11,17,07,16,19.00
2020,11,17,07,17,10.70
2020,11,17,07,18,9.40
2020,11,17,07,19,19.20
2020,11,17,07,20,10.80
2020,11,17,07,21,9.30
2020,11,17,07,22,13.50
2020,11,17,07,23,10.10
2020,11,17,07,24,11.70
2020,11,17,07,25,13.80
2020,11,17,07,26,10.90
2020,11,17,07,27,12.80
2020,11,17,07,28,12.10
2020,11,17,07,29,14.00
2020,11,17,07,30,11.50
2020,11,17,07,31,12.20
2020,11,17,07,32,11.30
2020,11,17,07,33,12.10
2020,11,17,07,34,12.80
2020,11,17,07,35,13.70
2020,11,17,07,36,15.40
2020,11,17,07,37,19.80
2020,11,17,07,38,17.00
2020,11,17,07,39,17.00
2020,11,17,07,40,13.80
2020,11,17,07,41,9.00
2020,11,17,07,42,11.80
2020,11,17,07,43,11.50
2020,11,17,07,44,12.00
2020,11,17,07,45,14.70
2020,11,17,07,46,9.90
2020,11,17,07,47,15.20
2020,11,17,07,48,11.40
2020,11,17,07,49,13.00
2020,11,17,07,50,18.20
2020,11,17,07,51,19.70
2020,11,17,07,52,20.60
2020,11,17,07,53,17.00
2020,11,17,07,54,16.90
2020,11,17,07,55,13.80
2020,11,17,07,56,13.40
2020,11,17,07,57,14.00
2020,11,17,07,58,15.50
2020,11,17,07,59,14.30
2020,11,17,08,00,13.30
2020,11,17,08,01,14.80
2020,11,17,08,02,18.20
2020,11,17,08,03,14.50
2020,11,17,08,04,14.00
2020,11,17,08,05,18.90
2020,11,17,08,06,17.60
2020,11,17,08,07,20.20
2020,11,17,08,08,9.30
2020,11,17,08,09,13.60
2020,11,17,08,10,11.40
2020,11,17,08,11,11.30
2020,11,17,08,12,15.10
2020,11,17,08,13,12.40
2020,11,17,08,14,12.20
2020,11,17,08,15,10.50
2020,11,17,08,16,12.80
2020,11,17,08,17,11.40
2020,11,17,08,18,14.60
2020,11,17,08,19,11.50
2020,11,17,08,20,10.80
2020,11,17,08,21,13.10
2020,11,17,08,22,9.50
2020,11,17,08,23,12.30
2020,11,17,08,24,10.20
2020,11,17,08,25,11.20
2020,11,17,08,26,10.20
2020,11,17,08,27,12.00
2020,11,17,08,28,12.90
2020,11,17,08,29,21.50
2020,11,17,08,30,16.30
2020,11,17,08,31,16.00
2020,11,17,08,32,13.00
2020,11,17,08,33,14.70
2020,11,17,08,34,18.30
2020,11,17,08,35,12.50
2020,11,17,08,36,19.50
2020,11,17,08,37,17.10
2020,11,17,08,38,15.80
2020,11,17,08,39,15.50
2020,11,17,08,40,13.20
2020,11,17,08,41,16.60
2020,11,17,08,42,14.40
2020,11,17,08,43,15.90
2020,11,17,08,44,13.90
2020,11,17,08,45,12.50
2020,11,17,08,46,12.10
2020,11,17,08,47,17.20
2020,11,17,08,48,11.20
2020,11,17,08,49,20.10
2020,11,17,08,50,12.60
2020,11,17,08,51,10.30
2020,11,17,08,52,19.50
2020,11,17,08,53,21.90
2020,11,17,08,54,21.40
2020,11,17,08,55,14.60
2020,11,17,08,56,17.10
2020,11,17,08,57,21.50
2020,11,17,08,58,15.30
2020,11,17,08,59,19.50
2020,11,17,09,00,16.00
2020,11,17,09,01,13.90
2020,11,17,09,02,22.90
2020,11,17,09,03,21.00
2020,11,17,09,04,14.90
2020,11,17,09,05,17.70
2020,11,17,09,06,19.30
2020,11,17,09,07,19.80
2020,11,17,09,08,20.40
2020,11,17,09,09,21.60
2020,11,17,09,10,22.90
2020,11,17,09,11,23.60
2020,11,17,09,12,19.50
2020,11,17,09,13,23.90
2020,11,17,09,14,22.60
2020,11,17,09,15,18.90
2020,11,17,09,16,23.30
2020,11,17,09,17,25.50
2020,11,17,09,18,23.00
2020,11,17,09,19,21.80
2020,11,17,09,20,22.00
2020,11,17,09,21,22.90
2020,11,17,09,22,16.60
2020,11,17,09,23,21.70
2020,11,17,09,24,16.10
2020,11,17,09,25,17.10
2020,11,17,09,26,26.10
2020,11,17,09,27,13.80
2020,11,17,09,28,24.80
2020,11,17,09,29,18.50
2020,11,17,09,30,20.60
2020,11,17,09,31,17.40
2020,11,17,09,32,23.20
2020,11,17,09,33,26.20
2020,11,17,09,34,30.00
2020,11,17,09,35,23.00
2020,11,17,09,36,25.80
2020,11,17,09,37,21.10
2020,11,17,09,38,21.90
2020,11,17,09,39,26.60
2020,11,17,09,40,23.20
2020,11,17,09,41,25.20
2020,11,17,09,42,27.40
2020,11,17,09,43,19.90
2020,11,17,09,44,23.50
2020,11,17,09,45,19.70
2020,11,17,09,46,21.00
2020,11,17,09,47,27.50
2020,11,17,09,48,21.70
2020,11,17,09,49,21.30
2020,11,17,09,50,30.60
2020,11,17,09,51,20.20
2020,11,17,09,52,22.00
2020,11,17,09,53,25.40
2020,11,17,09,54,19.30
2020,11,17,09,55,20.10
2020,11,17,09,56,15.30
2020,11,17,09,57,22.50
2020,11,17,09,58,23.70
2020,11,17,09,59,19.80
2020,11,17,10,00,19.40
2020,11,17,10,01,29.10
2020,11,17,10,02,18.50
2020,11,17,10,03,23.70
2020,11,17,10,04,28.30
2020,11,17,10,05,20.90
2020,11,17,10,06,17.80
2020,11,17,10,07,24.20
2020,11,17,10,08,18.70
2020,11,17,10,09,20.90
2020,11,17,10,10,16.70
2020,11,17,10,11,14.80
2020,11,17,10,12,9.80
2020,11,17,10,13,19.40
2020,11,17,10,14,19.00
2020,11,17,10,15,19.80
2020,11,17,10,16,20.00
2020,11,17,10,17,12.40
2020,11,17,10,18,11.50
2020,11,17,10,19,18.10
2020,11,17,10,20,12.90
2020,11,17,10,21,23.60
2020,11,17,10,22,13.70
2020,11,17,10,23,16.50
2020,11,17,10,24,18.50
2020,11,17,10,25,17.10
2020,11,17,10,26,17.70
2020,11,17,10,27,17.70
2020,11,17,10,28,11.60
2020,11,17,10,29,18.90
2020,11,17,10,30,19.00
2020,11,17,10,31,21.20
2020,11,17,10,32,23.70
2020,11,17,10,33,16.80
2020,11,17,10,34,16.40
2020,11,17,10,35,18.80
2020,11,17,10,36,20.60
2020,11,17,10,37,21.50
2020,11,17,10,38,18.70
2020,11,17,10,39,15.00
2020,11,17,10,40,20.20
2020,11,17,10,41,10.00
2020,11,17,10,42,12.30
2020,11,17,10,43,11.60
2020,11,17,10,44,12.70
2020,11,17,10,45,16.80
2020,11,17,10,46,23.20
2020,11,17,10,47,17.90
2020,11,17,10,48,16.20
2020,11,17,10,49,16.70
2020,11,17,10,50,12.40
2020,11,17,10,51,22.70
2020,11,17,10,52,17.60
2020,11,17,10,53,15.80
2020,11,17,10,54,16.60
2020,11,17,10,55,15.50
2020,11,17,10,56,16.40
2020,11,17,10,57,9.70
2020,11,17,10,58,12.70
2020,11,17,10,59,11.80
2020,11,17,11,00,12.40
2020,11,17,11,01,9.90
2020,11,17,11,02,15.10
2020,11,17,11,03,14.00
2020,11,17,11,04,16.10
2020,11,17,11,05,11.00
2020,11,17,11,06,9.80
2020,11,17,11,07,10.60
2020,11,17,11,08,9.40
2020,11,17,11,09,7.50
2020,11,17,11,10,15.60
2020,11,17,11,11,24.30
2020,11,17,11,12,28.40
2020,11,17,11,13,14.00
2020,11,17,11,14,27.50
2020,11,17,11,15,22.80
2020,11,17,11,16,16.10
2020,11,17,11,17,20.00
2020,11,17,11,18,20.80
2020,11,17,11,19,21.10
2020,11,17,11,20,14.70
2020,11,17,11,21,15.10
2020,11,17,11,22,21.70
2020,11,17,11,23,20.60
2020,11,17,11,24,22.00
2020,11,17,11,25,24.10
2020,11,17,11,26,21.00
2020,11,17,11,27,19.50
2020,11,17,11,28,33.30
2020,11,17,11,29,26.80
2020,11,17,11,30,25.80
2020,11,17,11,31,19.30
2020,11,17,11,32,21.70
2020,11,17,11,33,18.20
2020,11,17,11,34,22.10
2020,11,17,11,35,14.40
2020,11,17,11,36,18.60
2020,11,17,11,37,19.70
2020,11,17,11,38,15.00
2020,11,17,11,39,11.90
2020,11,17,11,40,16.20
2020,11,17,11,41,12.80
2020,11,17,11,42,25.80
2020,11,17,11,43,11.10
2020,11,17,11,44,13.50
2020,11,17,11,45,12.80
2020,11,17,11,46,18.60
2020,11,17,11,47,21.90
2020,11,17,11,48,11.30
2020,11,17,11,49,16.40
2020,11,17,11,50,21.60
2020,11,17,11,51,9.00
2020,11,17,11,52,13.80
2020,11,17,11,53,16.00
2020,11,17,11,54,22.20
2020,11,17,11,55,12.10
2020,11,17,11,56,8.70
2020,11,17,11,57,9.90
2020,11,17,11,58,16.20
2020,11,17,11,59,11.40
2020,11,17,12,00,12.60
2020,11,17,12,01,16.40
2020,11,17,12,02,12.20
2020,11,17,12,03,13.70
2020,11,17,12,04,11.60
2020,11,17,12,05,8.10
2020,11,17,12,06,11.10
2020,11,17,12,07,11.80
2020,11,17,12,08,20.10
2020,11,17,12,09,10.20
2020,11,17,12,10,14.20
2020,11,17,12,11,8.70
2020,11,17,12,12,8.20
2020,11,17,12,13,11.60
2020,11,17,12,14,13.20
2020,11,17,12,15,11.40
2020,11,17,12,16,13.40
2020,11,17,12,17,14.90
2020,11,17,12,18,17.70
2020,11,17,12,19,12.40
2020,11,17,12,20,15.40
2020,11,17,12,21,15.00
2020,11,17,12,22,8.70
2020,11,17,12,23,9.10
2020,11,17,12,24,6.80
2020,11,17,12,25,8.20
2020,11,17,12,26,8.10
2020,11,17,12,27,6.20
2020,11,17,12,28,7.40
2020,11,17,12,29,10.10
2020,11,17,12,30,11.80
2020,11,17,12,31,8.10
2020,11,17,12,32,8.40
2020,11,17,12,33,9.40
2020,11,17,12,34,10.70
2020,11,17,12,35,9.20
2020,11,17,12,36,12.80
2020,11,17,12,37,9.10
2020,11,17,12,38,11.20
2020,11,17,12,39,8.60
2020,11,17,12,40,6.90
2020,11,17,12,41,8.70
2020,11,17,12,42,8.90
2020,11,17,12,43,7.40
2020,11,17,12,44,2.30
2020,11,17,12,45,7.60
2020,11,17,12,46,10.80
2020,11,17,12,47,11.80
2020,11,17,12,48,12.00
2020,11,17,12,49,10.10
2020,11,17,12,50,9.80
2020,11,17,12,51,6.90
2020,11,17,12,52,5.50
2020,11,17,12,53,7.00
2020,11,17,12,54,7.90
2020,11,17,12,55,3.40
2020,11,17,12,56,4.00
2020,11,17,12,57,5.90
2020,11,17,12,58,7.20
2020,11,17,12,59,5.50
2020,11,17,13,00,9.00
2020,11,17,13,01,5.10
2020,11,17,13,02,6.10
2020,11,17,13,03,4.20
2020,11,17,13,04,3.30
2020,11,17,13,05,5.40
2020,11,17,13,06,2.80
2020,11,17,13,07,2.00
2020,11,17,13,08,7.40
2020,11,17,13,09,6.80
2020,11,17,13,10,4.10
2020,11,17,13,11,3.30
2020,11,17,13,12,4.20
2020,11,17,13,13,3.80
2020,11,17,13,14,0.30
2020,11,17,13,15,0.30
2020,11,17,13,16,3.30
2020,11,17,13,17,4.50
2020,11,17,13,18,2.40
2020,11,17,13,19,4.00
2020,11,17,13,20,0.30
2020,11,17,13,21,0.00
2020,11,17,13,22,1.30
2020,11,17,13,23,0.10
2020,11,17,13,24,1.20
2020,11,17,13,25,1.20
2020,11,17,13,26,4.80
2020,11,17,13,27,4.10
2020,11,17,13,28,5.90
2020,11,17,13,29,5.00
2020,11,17,13,30,1.70
2020,11,17,13,31,0.30
2020,11,17,13,32,0.90
2020,11,17,13,33,3.30
2020,11,17,13,34,2.90
2020,11,17,13,35,2.80
2020,11,17,13,36,5.20
2020,11,17,13,37,6.10
2020,11,17,13,38,2.40
2020,11,17,13,39,5.10
2020,11,17,13,40,6.50
2020,11,17,13,41,1.80
2020,11,17,13,42,2.30
2020,11,17,13,43,2.50
2020,11,17,13,44,3.40
2020,11,17,13,45,6.10
2020,11,17,13,46,3.20
2020,11,17,13,47,3.70
2020,11,17,13,48,2.40
2020,11,17,13,49,2.90
2020,11,17,13,50,4.20
2020,11,17,13,51,4.90
2020,11,17,13,52,5.40
2020,11,17,13,53,4.60
2020,11,17,13,54,4.20
2020,11,17,13,55,2.10
2020,11,17,13,56,1.40
2020,11,17,13,57,4.90
2020,11,17,13,58,8.10
2020,11,17,13,59,10.30
2020,11,17,14,00,9.50
2020,11,17,14,01,3.00
2020,11,17,14,02,4.80
2020,11,17,14,03,7.10
2020,11,17,14,04,5.50
2020,11,17,14,05,1.60
2020,11,17,14,06,4.70
2020,11,17,14,07,2.10
2020,11,17,14,08,3.40
2020,11,17,14,09,5.60
2020,11,17,14,10,6.80
2020,11,17,14,11,5.50
2020,11,17,14,12,6.70
2020,11,17,14,13,6.00
2020,11,17,14,14,4.30
2020,11,17,14,15,5.50
2020,11,17,14,16,3.20
2020,11,17,14,17,2.20
2020,11,17,14,18,1.30
2020,11,17,14,19,4.00
2020,11,17,14,20,6.50
2020,11,17,14,21,5.30
2020,11,17,14,22,4.10
2020,11,17,14,23,7.90
2020,11,17,14,24,5.70
2020,11,17,14,25,10.50
2020,11,17,14,26,7.60
2020,11,17,14,27,8.20
2020,11,17,14,28,9.00
2020,11,17,14,29,8.70
2020,11,17,14,30,8.00
2020,11,17,14,31,6.80
2020,11,17,14,32,10.00
2020,11,17,14,33,8.50
2020,11,17,14,34,12.80
2020,11,17,14,35,7.00
2020,11,17,14,36,8.20
2020,11,17,14,37,0.30
2020,11,17,14,38,3.80
2020,11,17,14,39,3.30
2020,11,17,14,40,6.50
2020,11,17,14,41,7.60
2020,11,17,14,42,9.80
2020,11,17,14,43,6.90
2020,11,17,14,44,9.40
2020,11,17,14,45,4.60
2020,11,17,14,46,6.70
2020,11,17,14,47,4.90
2020,11,17,14,48,7.90
2020,11,17,14,49,4.30
2020,11,17,14,50,5.30
2020,11,17,14,51,2.10
2020,11,17,14,52,6.50
2020,11,17,14,53,6.30
2020,11,17,14,54,7.60
2020,11,17,14,55,7.80
2020,11,17,14,56,4.90
2020,11,17,14,57,7.20
2020,11,17,14,58,5.60
2020,11,17,14,59,4.40
2020,11,17,15,00,5.80
2020,11,17,15,01,3.10
2020,11,17,15,02,5.90
2020,11,17,15,03,4.10
2020,11,17,15,04,3.80
2020,11,17,15,05,4.30
2020,11,17,15,06,3.20
2020,11,17,15,07,4.30
2020,11,17,15,08,3.60
2020,11,17,15,09,6.60
2020,11,17,15,10,3.60
2020,11,17,15,11,3.40
2020,11,17,15,12,6.30
2020,11,17,15,13,4.50
2020,11,17,15,14,3.00
2020,11,17,15,15,0.90
2020,11,17,15,16,6.70
2020,11,17,15,17,4.80
2020,11,17,15,18,6.30
2020,11,17,15,19,5.70
2020,11,17,15,20,6.80
2020,11,17,15,21,7.70
2020,11,17,15,22,7.80
2020,11,17,15,23,7.60
2020,11,17,15,24,10.70
2020,11,17,15,25,6.20
2020,11,17,15,26,4.00
2020,11,17,15,27,5.10
2020,11,17,15,28,9.20
2020,11,17,15,29,7.90
2020,11,17,15,30,8.60
2020,11,17,15,31,5.70
2020,11,17,15,32,6.80
2020,11,17,15,33,5.30
2020,11,17,15,34,5.20
2020,11,17,15,35,8.20
2020,11,17,15,36,10.90
2020,11,17,15,37,7.60
2020,11,17,15,38,7.60
2020,11,17,15,39,7.00
2020,11,17,15,40,7.40
2020,11,17,15,41,3.40
2020,11,17,15,42,4.60
2020,11,17,15,43,3.00
2020,11,17,15,44,5.10
2020,11,17,15,45,2.90
2020,11,17,15,46,1.00
2020,11,17,15,47,1.40
2020,11,17,15,48,2.50
2020,11,17,15,49,5.70
2020,11,17,15,50,5.30
2020,11,17,15,51,6.60
2020,11,17,15,52,5.30
2020,11,17,15,53,3.70
2020,11,17,15,54,4.90
2020,11,17,15,55,8.70
2020,11,17,15,56,2.60
2020,11,17,15,57,2.60
2020,11,17,15,58,5.30
2020,11,17,15,59,6.20
2020,11,17,16,00,5.70
2020,11,17,16,01,5.00
2020,11,17,16,02,6.70
2020,11,17,16,03,9.50
2020,11,17,16,04,5.10
2020,11,17,16,05,5.30
2020,11,17,16,06,3.60
2020,11,17,16,07,5.00
2020,11,17,16,08,9.70
2020,11,17,16,09,7.30
2020,11,17,16,10,5.10
2020,11,17,16,11,4.70
2020,11,17,16,12,6.10
2020,11,17,16,13,7.60
2020,11,17,16,14,8.20
2020,11,17,16,15,9.30
2020,11,17,16,16,9.80
2020,11,17,16,17,5.40
2020,11,17,16,18,4.90
2020,11,17,16,19,4.40
2020,11,17,16,20,10.00
2020,11,17,16,21,12.20
2020,11,17,16,22,6.20
2020,11,17,16,23,1.70
2020,11,17,16,24,4.20
2020,11,17,16,25,5.80
2020,11,17,16,26,7.20
2020,11,17,16,27,5.10
2020,11,17,16,28,5.60
2020,11,17,16,29,7.30
2020,11,17,16,30,8.50
2020,11,17,16,31,7.50
2020,11,17,16,32,16.80
2020,11,17,16,33,8.50
2020,11,17,16,34,8.50
2020,11,17,16,35,7.50
2020,11,17,16,36,6.30
2020,11,17,16,37,4.70
2020,11,17,16,38,11.40
2020,11,17,16,39,16.00
2020,11,17,16,40,15.20
2020,11,17,16,41,11.70
2020,11,17,16,42,8.90
2020,11,17,16,43,7.80
2020,11,17,16,44,7.00
2020,11,17,16,45,9.40
2020,11,17,16,46,7.30
2020,11,17,16,47,9.60
2020,11,17,16,48,8.00
2020,11,17,16,49,6.00
2020,11,17,16,50,3.90
2020,11,17,16,51,3.00
2020,11,17,16,52,7.70
2020,11,17,16,53,5.90
2020,11,17,16,54,8.40
2020,11,17,16,55,5.10
2020,11,17,16,56,4.30
2020,11,17,16,57,10.70
2020,11,17,16,58,10.60
2020,11,17,16,59,9.10
2020,11,17,17,00,10.70
2020,11,17,17,01,7.40
2020,11,17,17,02,5.40
2020,11,17,17,03,9.20
2020,11,17,17,04,4.70
2020,11,17,17,05,6.00
2020,11,17,17,06,4.40
2020,11,17,17,07,6.10
2020,11,17,17,08,9.90
2020,11,17,17,09,12.40
2020,11,17,17,10,7.40
2020,11,17,17,11,11.40
2020,11,17,17,12,13.80
2020,11,17,17,13,7.10
2020,11,17,17,14,7.10
2020,11,17,17,15,7.70
2020,11,17,17,16,4.70
2020,11,17,17,17,4.60
2020,11,17,17,18,2.10
2020,11,17,17,19,3.00
2020,11,17,17,20,9.30
2020,11,17,17,21,2.10
2020,11,17,17,22,3.80
2020,11,17,17,23,3.30
2020,11,17,17,24,5.80
2020,11,17,17,25,5.70
2020,11,17,17,26,6.00
2020,11,17,17,27,10.50
2020,11,17,17,28,10.30
2020,11,17,17,29,9.30
2020,11,17,17,30,11.20
2020,11,17,17,31,4.30
2020,11,17,17,32,4.20
2020,11,17,17,33,4.20
2020,11,17,17,34,4.70
2020,11,17,17,35,2.90
2020,11,17,17,36,7.50
2020,11,17,17,37,9.50
2020,11,17,17,38,5.90
2020,11,17,17,39,1.40
2020,11,17,17,40,3.80
2020,11,17,17,41,3.90
2020,11,17,17,42,2.70